Location: Tomaszow Mazowiecki
(51.5330°N, 20.0170°E)
Time: 03:09:01
(UTC+01:00)

ISS - Visible Passes

Search period start: 23 March 2019 00:00
Search period end: 02 April 2019 01:00
Orbit: 406 x 411 km, 51.6° (Epoch: 23 March)

Date Brightness Start Highest point End Pass type
(mag) Time Alt. Az. Time Alt. Az. Time Alt. Az.
23 Mar -2.1 18:48:35 10° S 18:50:53 18° SE 18:52:25 14° ESE visible
23 Mar -1.9 20:23:44 10° WSW 20:25:12 24° SW 20:25:12 24° SW visible
24 Mar -3.4 19:32:49 10° SW 19:35:59 44° SSE 19:36:39 38° ESE visible
24 Mar -0.7 21:09:08 10° W 21:09:24 12° W 21:09:24 12° W visible
25 Mar -2.9 18:42:03 10° SW 18:45:01 31° SSE 18:47:57 10° E visible
25 Mar -3.3 20:18:04 10° WSW 20:20:42 54° WSW 20:20:42 54° WSW visible
26 Mar -3.9 19:27:00 10° WSW 19:30:17 69° SSE 19:31:52 28° E visible
26 Mar -1.3 21:03:32 10° W 21:04:36 19° W 21:04:36 19° W visible
27 Mar -3.5 18:36:00 10° SW 18:39:14 52° SSE 18:42:27 10° E visible
27 Mar -3.9 20:12:25 10° W 20:15:40 85° NW 20:15:40 85° NW visible
28 Mar -3.9 19:21:17 10° W 19:24:36 89° S 19:26:40 21° E visible
28 Mar -1.7 20:57:53 10° W 20:59:24 25° W 20:59:24 25° W visible
29 Mar -4.0 20:06:44 10° W 20:10:03 89° SSW 20:10:20 73° E visible
30 Mar -3.8 19:15:35 10° W 19:18:53 86° N 19:21:14 18° E visible
30 Mar -2.0 20:52:10 10° W 20:53:57 28° W 20:53:57 28° W visible
31 Mar -3.8 21:00:59 10° W 21:04:17 70° SSW 21:04:50 55° SE visible
01 Apr -3.8 20:09:49 10° W 20:13:08 84° S 20:15:41 16° ESE visible
01 Apr -2.0 21:46:29 10° W 21:48:25 25° WSW 21:48:25 25° WSW visible
